CZ-4 DEB

基本信息
目录编号:
37612
目录名称:
CZ-4 DEB
国际标识:
1990-081CY
轨道中心:
EARTH
物体状态:
在轨
发射日期:
1990-09-03 UTC
轨道信息
数据来源: 国际轨道数据
星历时间: 2026-07-04T06:42:33+0800
半长轴: 7086.573km
偏心率: 0.0030797
轨道倾角: 98.266°
近地点辐角: 105.028°
升交点赤经: 225.519°
平近点角: 16.285°
近地点: 686.611km
远地点: 730.261km
周期: 98.950分钟
每日圈数: 14.552862
详细信息
发射场:
TSC
轨道高度:
LEO
数据来源:
AOE Integration Group
参考系:
TEME
时间系统:
UTC
历元类型:
SGP4
2D轨道图
3D轨道图
轨道高度分析图
轨道倾角分析图
轨道综合分析图
查看轨道综合分析图